Regional Weather Roundup
Issued by NWS

Home | Current Version | Previous Version | Text Only | Print | Product List | Glossary Off
Versions: 1 2 3 4 5 6 7 8 9 10 11 12 13 14 15 16 17 18 19 20 21 22 23 24 25 26 27 28 29 30 31 32 33 34 35 36 37 38 39 40 41 42 43 44 45 46 47 48 49 50

000
ASUS45 KABQ 221501
RWRNM
NEW MEXICO REGIONAL WEATHER ROUNDUP
NATIONAL WEATHER SERVICE ALBUQUERQUE NM
800 AM MST WED FEB 22 2017

NOTE: "FAIR" MEANS FEW OR NO CLOUDS BELOW 12,000 FEET AGL WITH NO
       SIGNIFICANT WEATHER OR OBSTRUCTIONS TO VISION.

      THIS PRODUCT IS RELEASED AS TWO VERSIONS.  ONE VERSION NEAR
      THE TOP OF THE HOUR CONTAINING PRELIMINARY DATA FROM ALBUQUERQUE
      AND OTHER STATIONS.  A FINAL VERSION WITH ADDITIONAL DATA IS
      ISSUED ABOUT 10 MINUTES AFTER THE HOUR.

NMZ501-503-504-510>518-221600-
NORTHWEST PLATEAU/NORTHCENTRAL MOUNTAINS

CITY           SKY/WX    TMP DP  RH WIND       PRES   REMARKS
FARMINGTON     FAIR      40  37  89 E3        30.09F
LOS ALAMOS     FAIR      41  30  65 E3        30.17S
SANTA FE       FAIR      42  31  64 SE3       30.15S
TAOS             N/A     39  25  56 SW6       30.16R WCI  35
ANGEL FIRE     FAIR      42  31  65 SW12      30.18S

$$
NMZ402-403-502-505>509-221600-
WESTCENTRAL MOUNTAINS/SOUTHWEST MOUNTAINS

CITY           SKY/WX    TMP DP  RH WIND       PRES   REMARKS
GALLUP         FAIR      37  34  89 E5        30.17R WCI  33
GRANTS         FAIR      42  35  75 E5        30.18R
SILVER CITY    FAIR      47  37  67 W7        30.17S

$$
NMZ407-409-411-412-221600-
SOUTHERN DESERTS

CITY           SKY/WX    TMP DP  RH WIND       PRES   REMARKS
DEMING         FAIR      50  39  66 W7        30.14S
LAS CRUCES     FAIR      50  37  62 CALM      30.15R
HOLLOMAN AFB   FAIR      47  33  59 SE3       30.14S
ALAMOGORDO     FAIR      48  36  61 SE3       30.12S
T OR C         FAIR      53  34  48 W7        30.13S

$$
NMZ519>523-221600-
CENTRAL VALLEYS/CENTRAL HIGHLANDS

CITY           SKY/WX    TMP DP  RH WIND       PRES   REMARKS
ALBUQUERQUE    FAIR      48  36  63 CALM      30.15R
DOUBLE EAGLE   PTSUNNY   43  36  75 NW6       30.16R
MORIARTY ARPT  FAIR      46  35  64 CALM      30.17S
CLINES CORNERS FAIR      46  32  58 W13       30.17S
BELEN          FAIR      50  35  55 S7        30.14S
SOCORRO        FAIR      48  36  63 CALM      30.14S

$$
NMZ524>526-539-540-221600-
SOUTHCENTRAL MOUNTAINS

CITY           SKY/WX    TMP DP  RH WIND       PRES   REMARKS
RUIDOSO        NOT AVBL

$$
NMZ527>531-221600-
NORTHEAST HIGHLANDS/NORTHEAST PLAINS

CITY           SKY/WX    TMP DP  RH WIND       PRES   REMARKS
RATON          FAIR      55  21  26 W14G29    30.02R
CLAYTON        FAIR      51  31  46 W8        29.95F

$$
NMZ532>537-221600-
EASTCENTRAL PLAINS

CITY           SKY/WX    TMP DP  RH WIND       PRES   REMARKS
TUCUMCARI      FAIR      58  32  37 W14       29.99R
CANNON AFB     FAIR      60  34  37 W18       30.02R
CLOVIS AIRPORT FAIR      61  36  39 W18G25    30.01R

$$
NMZ028-029-538-221600-
SOUTHEAST PLAINS

CITY           SKY/WX    TMP DP  RH WIND       PRES   REMARKS
ROSWELL        FAIR      53  32  44 CALM        N/A
ARTESIA        FAIR      48  32  53 CALM      30.06R
CARLSBAD       FAIR      63  33  32 W6        30.04R
HOBBS          SUNNY     59  32  36 SW7       30.06R


$$



USA.gov is the U.S. government's official web portal to all federal, state and local government web resources and services.